Starlink 30119

operational
NORAD ID: 56823 Int'l Des: 2023-079 Owner: SPXS Country: US Constellation: starlink
LEOCIRCULAR

关于 Starlink 30119

正在加载描述...

实时位置

正在加载3D地球...

即将过境

高度历史

Altitude vs Time

uPlot chart will show altitude changes over time

两行轨道根数

1 56823U 23079A 25352.52623618 .00000657 00000-0 63681-4 0 9991
2 56823 43.0020 188.5353 0000915 269.9255 90.1482 15.02525028141102
Epoch: Dec 18, 2025 • Age: 18 hours

当前状态

高度 561.3 km
速度 7.59 km/s
星下点 35.60°N, 125.75°E
发射日期 Jun 4, 2023
运行时间 2.5 years
类型 internet

技术详情

分类 Payload
质量 730.00 kg
干质量 700.00 kg
总质量 730.00 kg
长度 0.30 m
直径 4.10 m
跨度 29.00 m
形状 Box + pan
制造商 SPXS
平台类型 Starlink V2M
阶段状态 In Orbit
所有者/国家 SPXS/US

大型星座

Loading constellations...